Regional Weather Roundup
Issued by NWS

Home | Current Version | Previous Version | Text Only | Print | Product List | Glossary On
Versions: 1 2 3 4 5 6 7 8 9 10 11 12 13 14 15 16 17 18 19 20 21 22 23 24 25 26 27 28 29 30 31 32 33 34 35 36 37 38 39 40 41 42 43 44 45 46 47 48 49 50
000
ASUS43 KOAX 010910
RWRNE

WEATHER ROUNDUP FOR NEBRASKA
NATIONAL WEATHER SERVICE OMAHA NE
400 AM CDT SAT AUG 01 2015

NOTES: SATELLITE DATA IS BEING USED TO AUGMENT CLOUD COVER ABOVE
       12000 FEET.
       "FAIR" INDICATES FEW OR NO CLOUDS BELOW 12,000 FEET WITH NO
       SIGNIFICANT WEATHER AND/OR OBSTRUCTIONS TO VISIBILITY.

  * THESE STATIONS DO NOT REPORT WEATHER SUCH AS RAIN...SNOW OR FOG.

NEZ001>004-019>022-054>056-011000-
NEBRASKA PANHANDLE

CITY           SKY/WX    TMP DP  RH WIND       PRES   REMARKS
SCOTTSBLUFF    CLEAR     65  55  70 E9        30.12F
ALLIANCE       CLEAR     59  54  83 SE8       30.12F
CHADRON        CLEAR     60  53  77 CALM      30.07F
KIMBALL        CLEAR     63  55  74 S7        30.18S
SIDNEY         CLEAR     66  56  70 SW12      30.17F
$$

NEZ057>060-069>072-079>082-011000-
SOUTHWEST NEBRASKA

CITY           SKY/WX    TMP DP  RH WIND       PRES   REMARKS
NORTH PLATTE   CLEAR     68  61  78 SE6       30.10F
IMPERIAL       CLEAR     67  58  72 SW8       30.12F
LEXINGTON      PTCLDY    69  63  83 SW5       30.09F
MCCOOK         PTCLDY    73  52  47 SE14      30.13F
OGALLALA       PTCLDY    64  61  89 CALM      30.12S
$$

NEZ005>010-023>029-035>040-094-011000-
NORTH CENTRAL NEBRASKA

CITY           SKY/WX    TMP DP  RH WIND       PRES   REMARKS
VALENTINE      MOCLDY    68  61  78 E7        30.11S
AINSWORTH      MOCLDY    66  63  90 N14       30.13R
BROKEN BOW     CLEAR     68  61  78 S3        30.08F
O`NEILL        PTCLDY    66  65  96 W3        30.09R
ORD            MOCLDY    64  63  96 E6        30.08S
THEDFORD       CLEAR     63  59  88 CALM      30.10S
$$

NEZ041-046>049-061>064-073>077-083>087-011000-
SOUTH CENTRAL NEBRASKA

CITY           SKY/WX    TMP DP  RH WIND       PRES   REMARKS
GRAND ISLAND   CLOUDY    67  62  84 MISG      30.11R THUNDER
AURORA         LGT RAIN  66  64  94 S9        30.08F
HASTINGS       MOCLDY    68  63  84 NE8       30.08R
HEBRON         CLEAR     66  63  89 CALM      30.07S
HOLDREGE       PTCLDY    67  62  85 SW6       30.09F
KEARNEY *      CLEAR     70  61  73 SW12      30.07S
YORK           MOCLDY    63  61  94 CALM      30.09R
$$

NEZ011>018-030>034-042>045-011000-
NORTHEAST NEBRASKA

CITY           SKY/WX    TMP DP  RH WIND       PRES   REMARKS
NORFOLK        CLEAR     61  59  93 CALM      30.06F
ALBION         PTCLDY    59  57  93 S3        30.10R
BLAIR          CLEAR     67  65  92 CALM      30.05F FOG
COLUMBUS *     PTCLDY    59  54  82 NW3       30.08S
FREMONT        CLEAR     66  63  91 CALM      30.06S
TEKAMAH        CLEAR     63  61  93 CALM      30.04F
WAYNE          CLEAR     60  59  97 CALM      30.06F
$$

NEZ050>053-065>068-078-088>093-011000-
SOUTHEAST NEBRASKA

CITY           SKY/WX    TMP DP  RH WIND       PRES   REMARKS
LINCOLN        CLEAR     64  62  93 CALM      30.07F
OMAHA EPPLEY   CLEAR     71  67  87 SE6       30.04F
BEATRICE       CLEAR     67  64  90 CALM      30.06F
FALLS CITY     PTCLDY    73  69  87 S3        30.03F
NEBRASKA CITY  CLEAR     66  66  98 N5        30.06F
PLATTSMOUTH    CLEAR     66  65  96 S3        30.05F
$$

NEZ044-045-051>053-067-011000-
OMAHA AREA

CITY           SKY/WX    TMP DP  RH WIND       PRES   REMARKS
OMAHA EPPLEY   CLEAR     71  67  87 SE6       30.04F
BLAIR          CLEAR     67  65  92 CALM      30.05F FOG
FREMONT        CLEAR     66  63  91 CALM      30.06S
MILLARD        CLEAR     68  66  94 CALM      30.05S
OFFUTT AFB     CLEAR     65  64  97 CALM      30.04F
PLATTSMOUTH    CLEAR     66  65  96 S3        30.05F
WAHOO          FAIR      64  61  91 CALM      30.06F
$$



USA.gov is the U.S. government's official web portal to all federal, state and local government web resources and services.